Location: Stull Observatory
(42.2506°N, 77.7903°W)
Time: 11:44:44
(UTC-04:00)

Okean O Rocket - Visible Passes

Search period start: 26 May 2015 00:00
Search period end: 05 June 2015 00:00
Orbit: 624 x 646 km, 98.0° (Epoch: 25 May)

Date Brightness Start Highest point End Pass type
(mag) Time Alt. Az. Time Alt. Az. Time Alt. Az.
26 May 3.9 03:25:51 10° NE 03:29:01 19° E 03:32:17 10° SE visible
26 May 2.3 05:01:27 10° N 05:05:39 40° WNW 05:09:48 10° SW visible
27 May 3.2 03:47:10 10° NNE 03:51:09 32° E 03:55:10 10° SSE visible
28 May 2.2 04:08:49 10° NNE 04:13:11 55° E 04:17:35 10° S visible
29 May 1.6 04:30:41 10° NNE 04:35:10 86° WNW 04:39:37 10° SSW visible
30 May 4.1 03:17:40 10° NE 03:20:17 16° E 03:23:06 10° SE visible
30 May 2.0 04:52:44 10° N 04:57:04 50° WNW 05:01:22 10° SSW visible
31 May 3.5 03:38:44 10° NE 03:42:28 26° E 03:46:15 10° SSE visible
01 Jun 2.6 04:00:16 10° NNE 04:04:33 44° E 04:08:50 10° S visible
02 Jun 1.8 04:22:03 10° NNE 04:26:33 77° ESE 04:31:00 10° S visible
03 Jun 4.3 03:09:40 10° ENE 03:11:33 13° E 03:13:39 10° ESE visible
03 Jun 1.8 04:44:02 10° N 04:48:28 62° WNW 04:52:51 10° SSW visible
04 Jun 3.8 03:30:22 10° NE 03:33:46 21° E 03:37:15 10° SE visible
